TimeCDT,TemperatureF,Dew PointF,Humidity,Sea Level PressureIn,VisibilityMPH,Wind Direction,Wind SpeedMPH,Gust SpeedMPH,PrecipitationIn,Events,Conditions,WindDirDegrees,DateUTC
12:53 AM,78.1,64.0,62,29.73,10.0,South,12.7,27.6,N/A,,Mostly Cloudy,180,2013-04-10 05:53:00
1:53 AM,78.1,64.9,64,29.72,10.0,South,10.4,19.6,N/A,,Overcast,190,2013-04-10 06:53:00
2:53 AM,78.1,64.9,64,29.71,10.0,South,12.7,-,N/A,,Overcast,190,2013-04-10 07:53:00
3:53 AM,66.9,59.0,76,29.74,10.0,West,24.2,-,0.00,Rain,Light Rain,260,2013-04-10 08:53:00
4:03 AM,62.6,57.2,82,29.75,9.0,West,20.7,-,0.00,Rain,Light Rain,270,2013-04-10 09:03:00
4:53 AM,55.9,51.1,84,29.74,10.0,WSW,10.4,-,0.00,,Overcast,250,2013-04-10 09:53:00
5:40 AM,55.4,50.0,82,29.80,10.0,West,20.7,-,0.00,Rain,Light Rain,260,2013-04-10 10:40:00
5:48 AM,53.6,50.0,88,29.80,10.0,West,18.4,-,0.00,Rain,Light Rain,260,2013-04-10 10:48:00
5:53 AM,53.1,48.9,86,29.80,10.0,West,18.4,-,0.00,Rain,Light Rain,260,2013-04-10 10:53:00
6:43 AM,51.8,48.2,88,29.82,10.0,WSW,10.4,-,0.00,Rain,Light Rain,240,2013-04-10 11:43:00
6:53 AM,51.1,48.0,89,29.81,10.0,SW,10.4,-,0.00,,Overcast,230,2013-04-10 11:53:00
7:53 AM,51.1,46.9,86,29.80,10.0,SW,6.9,-,N/A,,Overcast,220,2013-04-10 12:53:00
8:13 AM,51.8,46.4,82,29.83,10.0,WSW,18.4,21.9,N/A,,Overcast,250,2013-04-10 13:13:00
8:24 AM,51.8,46.4,82,29.82,10.0,WSW,11.5,-,N/A,,Overcast,250,2013-04-10 13:24:00
8:51 AM,51.8,46.4,82,29.85,10.0,WSW,20.7,-,N/A,,Overcast,250,2013-04-10 13:51:00
8:53 AM,51.1,46.9,86,29.84,10.0,WSW,19.6,-,N/A,,Overcast,250,2013-04-10 13:53:00
9:53 AM,51.1,46.0,83,29.84,10.0,WSW,17.3,-,0.00,Rain,Light Rain,250,2013-04-10 14:53:00
10:53 AM,51.1,46.0,83,29.85,10.0,WSW,15.0,-,0.00,,Overcast,250,2013-04-10 15:53:00
11:53 AM,48.0,43.0,83,29.85,10.0,WSW,16.1,-,0.00,Rain,Light Rain,250,2013-04-10 16:53:00
12:53 PM,48.0,43.0,83,29.83,10.0,WSW,13.8,-,0.00,,Overcast,250,2013-04-10 17:53:00
1:53 PM,46.9,42.1,83,29.85,10.0,West,15.0,-,N/A,,Overcast,270,2013-04-10 18:53:00
2:48 PM,44.6,42.8,93,29.81,9.0,WNW,10.4,-,0.00,,Overcast,290,2013-04-10 19:48:00
2:53 PM,45.0,41.0,86,29.81,10.0,West,12.7,-,0.00,Rain,Light Rain,280,2013-04-10 19:53:00
3:44 PM,42.8,39.2,87,29.81,1.8,WNW,19.6,26.5,0.14,Rain,Heavy Rain,290,2013-04-10 20:44:00
3:53 PM,42.1,39.0,89,29.82,1.2,West,15.0,-,0.33,Rain,Heavy Rain,280,2013-04-10 20:53:00
4:01 PM,42.8,39.2,87,29.86,3.0,West,16.1,19.6,0.14,Rain,Heavy Rain,260,2013-04-10 21:01:00
4:21 PM,42.8,39.2,87,29.85,3.0,WSW,6.9,26.5,0.17,Rain,Heavy Rain,250,2013-04-10 21:21:00
4:48 PM,42.8,39.2,87,29.83,10.0,West,13.8,23.0,0.19,Rain,Light Rain,260,2013-04-10 21:48:00
4:53 PM,43.0,39.0,86,29.83,10.0,West,13.8,-,0.19,Rain,Light Rain,270,2013-04-10 21:53:00
5:12 PM,42.8,39.2,87,29.89,10.0,SSW,6.9,-,0.00,,Overcast,210,2013-04-10 22:12:00
5:51 PM,42.8,39.2,87,29.84,9.0,West,17.3,-,0.01,Rain,Light Rain,270,2013-04-10 22:51:00
5:53 PM,43.0,39.0,86,29.84,5.0,West,15.0,-,0.02,Rain,Rain,280,2013-04-10 22:53:00
6:53 PM,43.0,39.0,86,29.84,10.0,West,11.5,-,0.08,,Mostly Cloudy,280,2013-04-10 23:53:00
7:53 PM,43.0,39.0,86,29.86,10.0,West,17.3,23.0,N/A,,Overcast,280,2013-04-11 00:53:00
8:53 PM,42.1,37.9,85,29.87,10.0,WNW,10.4,-,N/A,,Overcast,290,2013-04-11 01:53:00
9:53 PM,43.0,37.9,82,29.89,10.0,West,13.8,-,N/A,,Overcast,270,2013-04-11 02:53:00
10:53 PM,43.0,37.9,82,29.91,10.0,West,12.7,-,N/A,,Overcast,280,2013-04-11 03:53:00
11:53 PM,42.1,37.0,82,29.93,10.0,WNW,13.8,-,N/A,,Overcast,290,2013-04-11 04:53:00